Terminal Aerodrome Forecast
Issued by NWS

Home | Current Version | Previous Version | Text Only | Print | Product List | Glossary On
Versions: 1 2 3 4 5 6 7 8 9 10 11 12 13
440
FTUS42 TJSJ 020955 AAA
TAFNCM
TAF AMD
TNCM 020955Z 0210/0306 10007KT P6SM -SHRA VCTS SCT018CB SCT022
      OVC090
      TEMPO 0210/0212 09011G23KT 3SM TSRA FEW013CB BKN018 BKN045
     FM021330 11012KT P6SM -RA SCT018 SCT022 OVC100
     FM022330 10008KT P6SM VCSH FEW018 FEW022 SCT040=

USA.gov is the U.S. government's official web portal to all federal, state and local government web resources and services.